www.pogodaiklimat.ru

Погода и климат >> Архив погоды >> Австрия >> Бад-Миттерндорф


ПОГОДА в Бад-Миттерндорфе

  • Прогноз погоды в Бад-Миттерндорфе
  • Монитор погоды в Бад-Миттерндорфе

АРХИВ ПОГОДЫ в Бад-Миттерндорфе

Время (UTC), дата Ветер
(напр.,м/с)
 
Видим.   Явления Облачность Т
(С)
Тd
(С)
f
(%)
Тe
(С)
Тes
(С)
Комфортность P
(гПа)
Po
(гПа)
Тmin
(С)
Tmax
(С)
R
(мм)
R24
(мм)
S
(см)
10 10.08 З 3 н/о н/о +26.4 +16.7 55 +30 +30 душно 1012.2 925.1
11 10.08 З 4 н/о н/о +26.0 +17.1 58 +30 +30 душно 1012.4 925.2
12 10.08 З 5 н/о н/о +27.1 +17.6 56 +31 +31 душно 1012.0 925.1
13 10.08 З 5 н/о н/о +27.1 +18.4 59 +32 +32 очень
душно
1011.9 925.1
14 10.08 З 6
{14}
н/о н/о +22.4 +16.7 70 +27 +27 душно 1014.8 926.3
15 10.08 З 4
{14}
н/о н/о +20.7 +15.9 74 +24 +24 комфорт 1016.7 927.5
16 10.08 З 5 н/о н/о +19.3 +14.5 74 +21 +21 комфорт 1017.9 928.2
17 10.08 З 1 н/о в посл. час осадки н/о +18.9 +15.2 79 +21 +21 комфорт 1018.6 928.7 0.0
18 10.08 З 1
{14}
н/о {осадки} н/о +18.9 +15.2 79 +21 +21 комфорт 1018.8 928.9 +17.4 +27.7 0.0
19 10.08 СЗ 1 н/о в посл. час осадки н/о +18.5 +15.4 82 +20 +20 1019.1 929.1 0.0
20 10.08 З 1 н/о н/о +18.1 +15.9 87 +19 +19 1019.8 929.6
21 10.08 ЮЗ 1 н/о {осадки} н/о +17.9 +15.9 88 +19 +19 1019.5 929.3 0.0
22 10.08 штиль 0 н/о н/о +17.8 +16.2 90 +18 +18 1019.9 929.6
23 10.08 З 3 н/о осадки н/о +16.9 +16.3 96 +17 +17 1021.0 930.4 0.0
00 11.08 С 1 н/о в посл. час осадки {ливн. осадки} н/о +15.8 +15.5 98 +16 +16 1020.9 929.9 1
01 11.08 СЗ 2 н/о н/о +14.7 +13.5 93 +14 +14 1021.2 929.8
02 11.08 СЗ 1 н/о ливневой дождь н/о +14.6 +14.1 97 +15 +15 1021.9 930.4 0.7
03 11.08 ЮВ 1 н/о в посл. час осадки {ливн. осадки} н/о +14.4 +14.0 97 +15 +15 1021.6 930.1 5
04 11.08 штиль 0 н/о в посл. час осадки н/о +13.8 +13.3 97 +13 +13 1022.1 930.3 0.1
05 11.08 ЮВ 1 н/о н/о +13.7 +13.4 98 +14 +14 1022.1 930.3 0.0
06 11.08 штиль 0 н/о {ливн. осадки} н/о +14.4 +13.7 96 +14 +14 1021.7 930.2 +13.4 +19.0 7
07 11.08 З 1 н/о н/о +15.4 +14.4 94 +16 +16 1021.2 930.0
08 11.08 штиль 0 н/о н/о +16.6 +15.0 90 +16 +16 1020.0 929.3
09 11.08 Ю 1 н/о н/о +19.1 +16.0 82 +22 +22 комфорт 1018.3 928.5
10 11.08 ЮВ 5 н/о н/о +21.3 +15.2 68 +24 +24 комфорт 1016.5 927.5
11 11.08 ЮВ 5 н/о н/о +22.9 +16.0 65 +27 +27 душно 1014.8 926.4
12 11.08 В 5 н/о н/о +24.5 +17.0 63 +28 +28 душно 1013.3 925.6
13 11.08 В 5 н/о н/о +25.6 +17.0 59 +29 +29 душно 1012.5 925.1
14 11.08 В 4 н/о н/о +26.1 +17.0 57 +30 +30 душно 1011.4 924.3
15 11.08 В 4 н/о н/о +26.5 +16.8 55 +30 +30 душно 1010.7 923.7
16 11.08 В 4 н/о н/о +26.4 +16.7 55 +30 +30 душно 1010.2 923.2
17 11.08 В 4 н/о н/о +26.3 +16.3 54 +30 +30 душно 1009.5 922.6
18 11.08 ЮВ 2 н/о н/о +25.2 +16.4 58 +29 +29 душно 1010.2 922.9 +14.0 +26.6
19 11.08 ЮВ 3 н/о н/о +22.9 +16.3 66 +27 +27 душно 1011.0 923.0
20 11.08 В 2 н/о н/о +22.9 +16.5 67 +28 +28 душно 1010.9 922.9
21 11.08 СВ 1 н/о н/о +20.9 +16.5 76 +26 +26 душно 1012.0 923.3
22 11.08 ЮВ 1 н/о н/о +20.0 +16.9 82 +24 +24 комфорт 1012.4 923.5
23 11.08 СЗ 2 н/о н/о +18.9 +16.7 87 +21 +21 комфорт 1013.7 924.3
00 12.08 штиль 0 н/о н/о +17.6 +16.5 93 +18 +18 1015.0 925.1
01 12.08 В 1 н/о н/о +18.7 +16.7 88 +21 +21 комфорт 1014.6 925.1
02 12.08 СЗ 1 н/о н/о +17.2 +16.1 93 +18 +18 1015.2 925.2
03 12.08 СЗ 2 н/о н/о +16.4 +15.8 96 +16 +16 1015.7 925.4
04 12.08 штиль 0 н/о н/о +15.8 +15.4 97 +16 +16 1016.3 925.7
05 12.08 СЗ 1 н/о н/о +16.2 +15.6 96 +17 +17 1016.2 925.8
06 12.08 СЗ 1 н/о н/о +18.3 +16.5 89 +20 +20 1015.3 925.6 +15.4 +25.6
07 12.08 С 1 н/о н/о +20.6 +16.9 79 +25 +25 комфорт 1014.3 925.4
08 12.08 З 3 н/о н/о +21.9 +16.0 69 +26 +26 душно 1013.9 925.3
09 12.08 З 2 н/о н/о +22.9 +16.5 67 +28 +28 душно 1012.8 924.6
10 12.08 З 4 н/о н/о +23.4 +17.0 67 +29 +29 душно 1012.4 924.4
11 12.08 З 4 н/о н/о +22.6 +16.9 70 +27 +27 душно 1012.4 924.2
12 12.08 З 5 н/о н/о +22.0 +17.0 73 +26 +26 душно 1012.0 923.7
13 12.08 З 4 н/о в посл. час осадки н/о +20.2 +17.4 84 +23 +23 комфорт 1012.9 924.0 0.3
14 12.08 З 4 н/о осадки н/о +17.7 +16.6 93 +17 +17 1015.6 925.7 0.5
15 12.08 З 3 н/о в посл. час осадки {ливн. осадки} н/о +19.1 +17.1 88 +21 +21 комфорт 1014.1 924.8 2
16 12.08 З 3
{13}
н/о н/о +16.9 +15.1 89 +17 +17 1015.6 925.4
17 12.08 СЗ 1 н/о н/о +16.5 +14.5 88 +17 +17 1015.1 924.8
18 12.08 С 1
{13}
н/о {ливн. осадки} н/о +16.6 +14.8 89 +17 +17 1014.5 924.3 +16.3 +23.4 2
19 12.08 ЮВ 1 н/о н/о +16.5 +15.2 92 +17 +17 1014.4 924.2 0.0
20 12.08 З 3 н/о осадки н/о +16.2 +15.4 95 +16 +16 1016.7 926.2 0.2
21 12.08 ЮЗ 1 н/о осадки н/о +15.0 +14.6 97 +15 +15 1018.3 927.3 3
22 12.08 СЗ 2 н/о осадки н/о +14.7 +14.3 97 +14 +14 1018.0 926.9 1
23 12.08 З 1 н/о н/о +14.5 +14.1 97 +15 +15 1017.4 926.3
00 13.08 СЗ 1 н/о осадки н/о +14.5 +14.1 97 +15 +15 1018.3 927.1 4
01 13.08 З 1 н/о в посл. час осадки н/о +14.4 +14.0 97 +15 +15 1018.5 927.3 0.7
02 13.08 ЮВ 1 н/о ливневой дождь н/о +14.2 +13.8 97 +14 +14 1018.6 927.3 0.3
03 13.08 штиль 0 н/о в посл. час осадки {ливн. осадки} н/о +14.1 +13.7 97 +14 +14 1018.3 927.0 1
04 13.08 З 1 н/о н/о +14.1 +13.7 97 +14 +14 1018.2 926.9
05 13.08 штиль 0 н/о н/о +14.0 +13.6 97 +14 +14 1018.5 927.1
06 13.08 Ю 1 н/о {ливн. осадки} н/о +14.2 +13.8 97 +14 +14 1019.1 927.7 +13.9 +16.7 6
07 13.08 ЮЗ 1 н/о н/о +14.4 +13.7 96 +15 +15 1019.2 927.9
08 13.08 Ю 1 н/о н/о +14.6 +13.1 91 +15 +15 1019.3 928.0
09 13.08 ЮВ 1 н/о в посл. час осадки н/о +14.8 +12.8 88 +15 +15 1019.7 928.4 0.3
10 13.08 З 1 н/о в посл. час осадки н/о +14.6 +12.4 87 +15 +15 1019.7 928.4 0.1
11 13.08 ЮВ 1 н/о в посл. час осадки н/о +14.7 +12.0 84 +15 +15 1019.4 928.1 0.2
12 13.08 ЮВ 1 н/о осадки {ливн. осадки} н/о +15.4 +11.9 80 +16 +16 1018.8 927.8 0.7
13 13.08 С 1 н/о н/о +15.3 +12.8 85 +16 +16 1018.4 927.4 0.0
14 13.08 З 1 н/о н/о +14.9 +10.7 76 +15 +15 1018.7 927.5
15 13.08 С 1 н/о ливневой дождь н/о +13.9 +12.1 89 +14 +14 1018.8 927.3 0.1
16 13.08 В 1 н/о н/о +13.9 +12.1 89 +14 +14 1018.3 926.9 0.0
17 13.08 СВ 1 н/о н/о +13.6 +12.5 93 +14 +14 1018.1 926.6 0.0
18 13.08 В 1 н/о {ливн. осадки} н/о +13.2 +12.4 95 +13 +13 1018.2 926.6 +13.2 +15.6 0.8
19 13.08 Ю 1 н/о в посл. час осадки н/о +12.8 +12.5 98 +13 +13 1019.2 927.4 0.1
20 13.08 Ю 1 н/о н/о +12.7 +12.4 98 +13 +13 1019.6 927.7 0.0
21 13.08 З 2 н/о ливневой дождь {осадки} н/о +11.9 +10.5 91 +11 +11 1019.9 927.7 0.6
22 13.08 штиль 0 н/о ливневой дождь н/о +11.4 +10.8 96 +11 +11 1020.4 928.0 1
23 13.08 СЗ 1 н/о осадки н/о +11.2 +10.7 97 +11 +11 1020.3 927.8 0.9
00 14.08 штиль 0 н/о ливневой дождь н/о +11.0 +10.7 98 +10 +10 1019.8 927.3 3
01 14.08 СЗ 1 н/о осадки н/о +10.8 +10.5 98 +10 +10 1020.1 927.5 0.4
02 14.08 штиль 0 н/о осадки н/о +10.8 +10.5 98 +10 +10 1020.0 927.4 0.7
03 14.08 З 1 н/о осадки н/о +10.8 +10.5 98 +10 +10 1020.0 927.4 1
04 14.08 С 1 н/о в посл. час осадки н/о +10.8 +10.5 98 +10 +10 1020.1 927.5 0.5
05 14.08 штиль 0 н/о н/о +10.9 +10.6 98 +10 +10 1020.3 927.7 0.0
06 14.08 штиль 0 н/о {осадки} н/о +11.3 +11.0 98 +11 +11 1020.3 927.9 +10.7 +13.3 5
07 14.08 штиль 0 н/о осадки н/о +11.2 +10.9 98 +10 +10 1020.6 928.1 0.4
08 14.08 Ю 1 н/о в посл. час осадки н/о +12.3 +11.0 92 +12 +12 1020.2 928.1 0.1
09 14.08 З 2 н/о {осадки} н/о +12.4 +9.8 84 +11 +11 1020.6 928.4 0.5
10 14.08 СВ 1 н/о в посл. час осадки н/о +13.5 +11.4 87 +14 +14 1020.1 928.4 0.1
11 14.08 З 3 н/о н/о +14.8 +9.8 72 +14 +14 1019.9 928.5
12 14.08 З 3 н/о {ливн. осадки} н/о +14.4 +9.2 71 +14 +14 1020.1 928.6 0.6
13 14.08 ЮЗ 2 н/о н/о +16.4 +8.6 60 +17 +17 1018.9 928.1
14 14.08 З 3 н/о н/о +17.6 +6.8 49 +18 +18 1018.2 927.7
15 14.08 З 4 н/о н/о +17.6 +5.9 46 +17 +17 1017.7 927.3
16 14.08 З 2 н/о н/о +17.7 +7.2 50 +18 +18 1017.3 927.0
17 14.08 З 3 н/о н/о +17.3 +6.5 49 +17 +17 1017.4 926.9
18 14.08 ЮВ 1 н/о н/о +15.0 +7.6 61 +16 +16 1018.3 927.1 +11.0 +18.1 0.6
19 14.08 штиль 0 н/о н/о +11.9 +8.6 80 +11 +11 1020.1 927.8
20 14.08 штиль 0 н/о н/о +10.2 +8.6 90 +9 +9 1021.0 928.1
21 14.08 ЮВ 1 н/о н/о +9.1 +8.4 95 +8 +8 1021.5 928.2
22 14.08 штиль 0 н/о н/о +8.3 +7.7 96 +7 +7 1022.0 928.4
23 14.08 штиль 0 н/о н/о +7.6 +7.3 98 +7 +7 1022.4 928.5
00 15.08 штиль 0 н/о н/о +6.7 +6.4 98 +6 +6 1022.6 928.4
01 15.08 штиль 0 н/о н/о +6.2 +5.9 98 +5 +5 1022.4 928.0
02 15.08 штиль 0 н/о н/о +5.2 +5.0 99 +4 +4 1022.4 927.7
03 15.08 штиль 0 н/о н/о +4.9 +4.6 98 +4 +4 1022.2 927.4
04 15.08 штиль 0 н/о н/о +4.2 +3.9 98 +3 +3 1022.4 927.4
05 15.08 Ю 1 н/о н/о +5.1 +4.9 99 +4 +4 1022.2 927.5
06 15.08 З 1 н/о н/о +6.3 +6.0 98 +5 +5 1021.3 927.1 +3.6 +15.6
07 15.08 Ю 1 н/о н/о +10.9 +9.3 90 +11 +11 1019.1 926.6
08 15.08 Ю 1 н/о н/о +14.1 +10.1 77 +14 +14 1017.3 926.0
09 15.08 ЮВ 2 н/о н/о +16.3 +9.9 66 +16 +16 1016.1 925.5
10 15.08 В 1 н/о н/о +18.0 +9.1 56 +19 +19 1014.8 924.8
11 15.08 ЮВ 1 н/о н/о +21.6 +8.2 42 +23 +23 комфорт 1013.2 924.4
12 15.08 З 2 н/о н/о +22.1 +7.2 38 +23 +23 комфорт 1012.8 924.1 0.0
13 15.08 С 2 н/о н/о +22.0 +7.1 38 +23 +23 комфорт 1012.7 924.0
14 15.08 З 4 н/о н/о +21.2 +7.5 41 +22 +22 комфорт 1013.0 924.1
15 15.08 З 4 н/о н/о +19.4 +7.5 46 +20 +20 1014.1 924.5
16 15.08 З 2 н/о н/о +18.8 +8.5 51 +20 +20 1013.9 924.2 0.0
17 15.08 З 2 н/о н/о +18.1 +10.2 60 +19 +19 1014.3 924.4 0.0
18 15.08 С 1 н/о н/о +17.2 +10.8 66 +18 +18 1015.1 924.9 +6.3 +22.6 0.0
19 15.08 С 1 н/о н/о +16.4 +11.5 73 +17 +17 1015.9 925.4
20 15.08 В 1 н/о ливневой дождь н/о +14.3 +13.5 95 +15 +15 1017.5 926.3 0.5
21 15.08 СЗ 1 н/о {ливн. осадки} н/о +13.7 +13.0 96 +14 +14 1018.0 926.6 0.5
22 15.08 СЗ 1 н/о н/о +13.2 +12.9 98 +13 +13 1018.4 926.8
23 15.08 Ю 1 н/о н/о +13.0 +12.7 98 +13 +13 1018.6 926.9
00 16.08 ЮЗ 1 н/о {ливн. осадки} н/о +12.6 +12.3 98 +12 +12 1018.9 927.0 0.5
01 16.08 СВ 1 н/о н/о +13.2 +12.2 94 +13 +13 1019.0 927.3 0.0
02 16.08 Ю 1 н/о н/о +12.9 +11.9 94 +13 +13 1018.9 927.1 0.0
03 16.08 ЮВ 2 н/о в посл. час осадки н/о +12.4 +12.1 98 +11 +11 1019.6 927.6 0.5
04 16.08 СЗ 1 н/о осадки н/о +12.3 +12.0 98 +12 +12 1019.9 927.8 0.1
05 16.08 ЮВ 1 н/о осадки н/о +12.0 +11.7 98 +12 +12 1020.2 928.0 2
06 16.08 штиль 0 н/о в посл. час осадки {ливн. осадки} н/о +12.3 +12.0 98 +12 +12 1020.5 928.4 +11.9 +17.4 4
07 16.08 штиль 0 н/о ливневой дождь н/о +13.3 +11.8 91 +13 +13 1020.4 928.6 0.6
08 16.08 ЮЗ 1 н/о н/о +15.0 +12.5 85 +16 +16 1019.8 928.6
09 16.08 З 2 н/о {ливн. осадки} н/о +15.0 +11.6 80 +15 +15 1020.0 928.7 0.6
10 16.08 З 2 н/о осадки н/о +15.5 +11.3 76 +15 +15 1019.9 928.8 0.1
11 16.08 Ю 1 н/о в посл. час осадки н/о +18.8 +13.2 70 +21 +21 комфорт 1018.0 928.1 0.4
12 16.08 ЮЗ 2 н/о {ливн. осадки} н/о +18.8 +10.9 60 +20 +20 1017.8 927.8 1
13 16.08 СЗ 3 н/о н/о +17.9 +9.0 56 +18 +18 1017.9 927.6
14 16.08 ЮЗ 2 н/о н/о +19.4 +8.7 50 +21 +21 комфорт 1016.9 927.1 0.0
15 16.08 З 2 н/о н/о +19.1 +9.3 53 +20 +20 1016.7 926.9 0.0
16 16.08 З 2 н/о н/о +19.9 +8.9 49 +22 +22 комфорт 1016.3 926.7
17 16.08 З 2 н/о н/о +19.2 +8.8 51 +21 +21 комфорт 1016.4 926.6
18 16.08 В 1 н/о н/о +16.4 +10.0 66 +17 +17 1017.5 926.8 +12.2 +20.1 1
19 16.08 штиль 0 н/о н/о +13.6 +10.8 83 +13 +13 1018.9 927.3
20 16.08 штиль 0 н/о н/о +11.8 +10.4 91 +11 +11 1020.0 927.7
21 16.08 штиль 0 н/о н/о +10.7 +9.6 93 +10 +10 1020.5 927.8
22 16.08 штиль 0 н/о н/о +10.1 +9.5 96 +9 +9 1020.4 927.5
23 16.08 штиль 0 н/о н/о +9.0 +8.7 98 +8 +8 1020.5 927.3
00 17.08 штиль 0 н/о н/о +8.2 +7.9 98 +7 +7 1020.8 927.3
01 17.08 штиль 0 н/о н/о +7.5 +7.2 98 +6 +6 1020.8 927.0
02 17.08 штиль 0 н/о н/о +7.0 +6.7 98 +6 +6 1020.4 926.5
03 17.08 штиль 0 н/о н/о +6.2 +5.9 98 +5 +5 1020.8 926.6
05 17.08 штиль 0 н/о н/о +6.1 +5.8 98 +5 +5 1021.0 926.7
06 17.08 штиль 0 н/о н/о +7.9 +7.6 98 +7 +7 1020.3 926.7 +5.7 +16.5
07 17.08 штиль 0 н/о н/о +9.6 +9.0 96 +9 +9 1019.7 926.7
08 17.08 Ю 1 н/о н/о +12.9 +10.8 87 +13 +13 1018.5 926.7
09 17.08 Ю 1 н/о н/о +16.4 +10.9 70 +17 +17 1016.9 926.3
10 17.08 штиль 0 н/о н/о +19.2 +11.2 60 +20 +20 1015.4 925.8

 

Местоположение метеостанции Бад-Миттерндорф (Австрия): широта 47.55 долгота 13.93 высота над уровнем моря 803 м.

В архиве по умолчанию представлена погода в Бад-Миттерндорфе за последнюю неделю. Архивные данные за месяц целиком и за предыдущие месяцы, начиная с января 2011 года, Вы можете получить, выбрав интересующий диапазон дат из раскрывающегося списка и нажав кнопку "Ввод!".


*Определитесь, кто Вы:
робот инопланетянин человек

Внимание! Время в таблицах - всемирное. Для получения местного времени необходимо прибавить поправку, которая равна 1 ч.

Смотрите также архив погоды в соседних городах и на ближайших метеорологических станциях:

Погода в Грёбминге (Австрия) (11 км)
Погода в Бад-Аусзе (Австрия) (14 км)
Погода в Айген-им-Энсталь (Австрия) (15 км)
Погода в Бад-Гойзерне (Австрия) (25 км)
Погода в Рамзау (Австрия) (26 км)
Погода в Фойеркогеле (Австрия) (34 км)
Погода в Виндишгарстене (Австрия) (36 км)
Погода в Гмундене (Австрия) (40 км)
Погода в Радштадте (Австрия) (41 км)
Погода в Санкт-Вольфганге (Австрия) (41 км)

Пояснения к столбцам:

Ветер - указаны скорость ветра в м/с - средняя за 10 мин, порывы в срок и между сроками (в фигурных скобках) и направление, откуда дует ветер: С - северный, СВ - северо-восточный, В - восточный, ЮВ - юго-восточный, Ю - южный, ЮЗ - юго-западный, З - западный, СЗ - северо-западный.
Видимость - горизонтальная дальность видимости в метрах или километрах. При видимости от 1 до 10 км при отсутствии осадков обычно наблюдается дымка, при ухудшении видимости до 1 км и менее - туман. В сухую погоду видимость может ухудшаться дымом, пылью или мглою.
Явления - указаны атмосферные явления, наблюдавшиеся в срок или в последний час перед сроком; фигурными скобками обозначены явления, наблюдавшиеся между сроками (за 1-3 часа до срока); квадратными скобками обозначены град или гололедные отложения с указанием их диаметра в мм.
Облачность - указаны через наклонную черту общая и нижняя облачность в баллах и высота нижней границы облаков в метрах; квадратными скобками обозначены формы облаков: Ci - перистые, Cs - перисто-слоистые, Cc - перисто-кучевые, Ac - высококучевые, As - высокослоистые, Sc - слоисто-кучевые, Ns - слоисто-дождевые, Cu - кучевые, Cb - кучево-дождевые. Подробнее классификацию облаков см. в Атласе облаков (PDF).
T - Температура воздуха - температура, измеренная на высоте 2 м над землей.
Td - Температура точки росы - температура, при понижении до которой содержащийся в воздухе водяной пар достигнет насыщения.
f - Относительная влажность воздуха - влажноcть воздуха, измеренная на высоте 2 м над землей.
Te - Эффективная температура - температура, которую ощущает одетый по сезону человек в тени. Характеристика душности погоды. При расчете учитывается влияние влажности воздуха и скорости ветра на теплоощущения человека.
Tes - Эффективная температура на солнце - температура, которую ощущает человек, с поправкой на солнечный нагрев. Характеристика знойности погоды. Зависит от высоты солнца над горизонтом, облачности и скорости ветра. Ночью, в пасмурную погоду, а также при ветре 12 м/с и более поправка равна нулю.
P - Атмосферное давление - приведенное к уровню моря атмосферное давление.
Po - Атмосферное давление - измеренное на уровне метеостанции атмосферное давление.
Tmin - Минимальная температура - минимум температуры воздуха на высоте 2 м над землей.
Tmax - Максимальная температура - максимум температуры воздуха на высоте 2 м над землей.
R - Количество осадков - Количество выпавших осадков за период времени, мм. При наведении курсора мыши на число - период времени, за который выпало указанное количество осадков.
R24 - Количество осадков - Количество выпавших осадков за 24 часа, мм.
S - Снежный покров - Высота снежного покрова, см. При наведении курсора мыши на число - состояние снежного покрова и степень покрытия местности в баллах.